Year,Month,Day,Hour,Minute,Value (Times are PST for windgust in km/hr)
2015,06,12,00,00,27.40
2015,06,12,00,01,24.20
2015,06,12,00,02,19.30
2015,06,12,00,03,20.90
2015,06,12,00,04,14.50
2015,06,12,00,05,14.50
2015,06,12,00,06,19.30
2015,06,12,00,07,22.50
2015,06,12,00,08,24.20
2015,06,12,00,09,29.00
2015,06,12,00,10,22.50
2015,06,12,00,11,22.50
2015,06,12,00,12,29.00
2015,06,12,00,13,20.90
2015,06,12,00,14,35.40
2015,06,12,00,15,25.70
2015,06,12,00,16,17.70
2015,06,12,00,17,24.20
2015,06,12,00,18,19.30
2015,06,12,00,19,22.50
2015,06,12,00,20,24.20
2015,06,12,00,21,22.50
2015,06,12,00,22,22.50
2015,06,12,00,23,19.30
2015,06,12,00,24,20.90
2015,06,12,00,25,25.70
2015,06,12,00,26,14.50
2015,06,12,00,27,24.20
2015,06,12,00,28,22.50
2015,06,12,00,29,19.30
2015,06,12,00,30,22.50
2015,06,12,00,31,22.50
2015,06,12,00,32,16.10
2015,06,12,00,33,22.50
2015,06,12,00,34,16.10
2015,06,12,00,35,12.90
2015,06,12,00,36,19.30
2015,06,12,00,37,19.30
2015,06,12,00,38,20.90
2015,06,12,00,39,27.40
2015,06,12,00,40,25.70
2015,06,12,00,41,24.20
2015,06,12,00,42,22.50
2015,06,12,00,43,16.10
2015,06,12,00,44,11.30
2015,06,12,00,45,17.70
2015,06,12,00,46,20.90
2015,06,12,00,47,33.80
2015,06,12,00,48,22.50
2015,06,12,00,49,20.90
2015,06,12,00,50,19.30
2015,06,12,00,51,19.30
2015,06,12,00,52,17.70
2015,06,12,00,53,19.30
2015,06,12,00,54,17.70
2015,06,12,00,55,22.50
2015,06,12,00,56,27.40
2015,06,12,00,57,27.40
2015,06,12,00,58,22.50
2015,06,12,00,59,17.70
2015,06,12,01,00,17.70
2015,06,12,01,01,14.50
2015,06,12,01,02,16.10
2015,06,12,01,03,24.20
2015,06,12,01,04,12.90
2015,06,12,01,05,29.00
2015,06,12,01,06,27.40
2015,06,12,01,07,20.90
2015,06,12,01,08,20.90
2015,06,12,01,09,20.90
2015,06,12,01,10,17.70
2015,06,12,01,11,25.70
2015,06,12,01,12,24.20
2015,06,12,01,13,27.40
2015,06,12,01,14,20.90
2015,06,12,01,15,20.90
2015,06,12,01,16,12.90
2015,06,12,01,17,22.50
2015,06,12,01,18,25.70
2015,06,12,01,19,27.40
2015,06,12,01,20,27.40
2015,06,12,01,21,25.70
2015,06,12,01,22,17.70
2015,06,12,01,23,16.10
2015,06,12,01,24,24.20
2015,06,12,01,25,25.70
2015,06,12,01,26,25.70
2015,06,12,01,27,22.50
2015,06,12,01,28,16.10
2015,06,12,01,29,25.70
2015,06,12,01,30,11.30
2015,06,12,01,31,27.40
2015,06,12,01,32,25.70
2015,06,12,01,33,20.90
2015,06,12,01,34,14.50
2015,06,12,01,35,16.10
2015,06,12,01,36,22.50
2015,06,12,01,37,17.70
2015,06,12,01,38,17.70
2015,06,12,01,39,27.40
2015,06,12,01,40,25.70
2015,06,12,01,41,20.90
2015,06,12,01,42,20.90
2015,06,12,01,43,19.30
2015,06,12,01,44,19.30
2015,06,12,01,45,14.50
2015,06,12,01,46,20.90
2015,06,12,01,47,25.70
2015,06,12,01,48,25.70
2015,06,12,01,49,11.30
2015,06,12,01,50,19.30
2015,06,12,01,51,20.90
2015,06,12,01,52,14.50
2015,06,12,01,53,20.90
2015,06,12,01,54,22.50
2015,06,12,01,55,24.20
2015,06,12,01,56,16.10
2015,06,12,01,57,20.90
2015,06,12,01,58,24.20
2015,06,12,01,59,20.90
2015,06,12,02,00,19.30
2015,06,12,02,01,25.70
2015,06,12,02,02,17.70
2015,06,12,02,03,29.00
2015,06,12,02,04,35.40
2015,06,12,02,05,16.10
2015,06,12,02,06,24.20
2015,06,12,02,07,25.70
2015,06,12,02,08,19.30
2015,06,12,02,09,25.70
2015,06,12,02,10,25.70
2015,06,12,02,11,24.20
2015,06,12,02,12,17.70
2015,06,12,02,13,12.90
2015,06,12,02,14,14.50
2015,06,12,02,15,14.50
2015,06,12,02,16,16.10
2015,06,12,02,17,14.50
2015,06,12,02,18,19.30
2015,06,12,02,19,19.30
2015,06,12,02,20,20.90
2015,06,12,02,21,12.90
2015,06,12,02,22,17.70
2015,06,12,02,23,16.10
2015,06,12,02,24,14.50
2015,06,12,02,25,22.50
2015,06,12,02,26,25.70
2015,06,12,02,27,19.30
2015,06,12,02,28,29.00
2015,06,12,02,29,24.20
2015,06,12,02,30,25.70
2015,06,12,02,31,22.50
2015,06,12,02,32,17.70
2015,06,12,02,33,22.50
2015,06,12,02,34,32.20
2015,06,12,02,35,25.70
2015,06,12,02,36,19.30
2015,06,12,02,37,29.00
2015,06,12,02,38,22.50
2015,06,12,02,39,19.30
2015,06,12,02,40,25.70
2015,06,12,02,41,27.40
2015,06,12,02,42,29.00
2015,06,12,02,43,29.00
2015,06,12,02,44,20.90
2015,06,12,02,45,29.00
2015,06,12,02,46,25.70
2015,06,12,02,47,32.20
2015,06,12,02,48,22.50
2015,06,12,02,49,27.40
2015,06,12,02,50,25.70
2015,06,12,02,51,22.50
2015,06,12,02,52,27.40
2015,06,12,02,53,24.20
2015,06,12,02,54,20.90
2015,06,12,02,55,30.60
2015,06,12,02,56,20.90
2015,06,12,02,57,24.20
2015,06,12,02,58,24.20
2015,06,12,02,59,24.20
2015,06,12,03,00,20.90
2015,06,12,03,01,22.50
2015,06,12,03,02,24.20
2015,06,12,03,03,22.50
2015,06,12,03,04,29.00
2015,06,12,03,05,27.40
2015,06,12,03,06,33.80
2015,06,12,03,07,30.60
2015,06,12,03,08,25.70
2015,06,12,03,09,27.40
2015,06,12,03,10,22.50
2015,06,12,03,11,16.10
2015,06,12,03,12,19.30
2015,06,12,03,13,24.20
2015,06,12,03,14,32.20
2015,06,12,03,15,17.70
2015,06,12,03,16,22.50
2015,06,12,03,17,32.20
2015,06,12,03,18,22.50
2015,06,12,03,19,20.90
2015,06,12,03,20,20.90
2015,06,12,03,21,24.20
2015,06,12,03,22,20.90
2015,06,12,03,23,19.30
2015,06,12,03,24,14.50
2015,06,12,03,25,22.50
2015,06,12,03,26,20.90
2015,06,12,03,27,22.50
2015,06,12,03,28,14.50
2015,06,12,03,29,19.30
2015,06,12,03,30,19.30
2015,06,12,03,31,19.30
2015,06,12,03,32,24.20
2015,06,12,03,33,22.50
2015,06,12,03,34,22.50
2015,06,12,03,35,25.70
2015,06,12,03,36,22.50
2015,06,12,03,37,22.50
2015,06,12,03,38,20.90
2015,06,12,03,39,14.50
2015,06,12,03,40,27.40
2015,06,12,03,41,22.50
2015,06,12,03,42,16.10
2015,06,12,03,43,19.30
2015,06,12,03,44,16.10
2015,06,12,03,45,14.50
2015,06,12,03,46,20.90
2015,06,12,03,47,19.30
2015,06,12,03,48,19.30
2015,06,12,03,49,16.10
2015,06,12,03,50,16.10
2015,06,12,03,51,16.10
2015,06,12,03,52,14.50
2015,06,12,03,53,16.10
2015,06,12,03,54,17.70
2015,06,12,03,55,12.90
2015,06,12,03,56,16.10
2015,06,12,03,57,17.70
2015,06,12,03,58,17.70
2015,06,12,03,59,17.70
2015,06,12,04,00,20.90
2015,06,12,04,01,16.10
2015,06,12,04,02,17.70
2015,06,12,04,03,22.50
2015,06,12,04,04,14.50
2015,06,12,04,05,14.50
2015,06,12,04,06,20.90
2015,06,12,04,07,22.50
2015,06,12,04,08,22.50
2015,06,12,04,09,19.30
2015,06,12,04,10,14.50
2015,06,12,04,11,17.70
2015,06,12,04,12,14.50
2015,06,12,04,13,19.30
2015,06,12,04,14,14.50
2015,06,12,04,15,14.50
2015,06,12,04,16,16.10
2015,06,12,04,17,17.70
2015,06,12,04,18,16.10
2015,06,12,04,19,22.50
2015,06,12,04,20,16.10
2015,06,12,04,21,17.70
2015,06,12,04,22,17.70
2015,06,12,04,23,12.90
2015,06,12,04,24,12.90
2015,06,12,04,25,9.60
2015,06,12,04,26,14.50
2015,06,12,04,27,9.60
2015,06,12,04,28,16.10
2015,06,12,04,29,14.50
2015,06,12,04,30,20.90
2015,06,12,04,31,16.10
2015,06,12,04,32,14.50
2015,06,12,04,33,16.10
2015,06,12,04,34,16.10
2015,06,12,04,35,14.50
2015,06,12,04,36,6.40
2015,06,12,04,37,12.90
2015,06,12,04,38,17.70
2015,06,12,04,39,14.50
2015,06,12,04,40,16.10
2015,06,12,04,41,16.10
2015,06,12,04,42,19.30
2015,06,12,04,43,16.10
2015,06,12,04,44,17.70
2015,06,12,04,45,17.70
2015,06,12,04,46,22.50
2015,06,12,04,47,17.70
2015,06,12,04,48,20.90
2015,06,12,04,49,14.50
2015,06,12,04,50,16.10
2015,06,12,04,51,11.30
2015,06,12,04,52,9.60
2015,06,12,04,53,11.30
2015,06,12,04,54,17.70
2015,06,12,04,55,14.50
2015,06,12,04,56,19.30
2015,06,12,04,57,11.30
2015,06,12,04,58,14.50
2015,06,12,04,59,12.90
2015,06,12,05,00,12.90
2015,06,12,05,01,14.50
2015,06,12,05,02,16.10
2015,06,12,05,03,14.50
2015,06,12,05,04,14.50
2015,06,12,05,05,16.10
2015,06,12,05,06,14.50
2015,06,12,05,07,16.10
2015,06,12,05,08,9.60
2015,06,12,05,09,6.40
2015,06,12,05,10,9.60
2015,06,12,05,11,8.10
2015,06,12,05,12,14.50
2015,06,12,05,13,12.90
2015,06,12,05,14,16.10
2015,06,12,05,15,14.50
2015,06,12,05,16,12.90
2015,06,12,05,17,14.50
2015,06,12,05,18,14.50
2015,06,12,05,19,11.30
2015,06,12,05,20,9.60
2015,06,12,05,21,20.90
2015,06,12,05,22,14.50
2015,06,12,05,23,8.10
2015,06,12,05,24,6.40
2015,06,12,05,25,9.60
2015,06,12,05,26,12.90
2015,06,12,05,27,12.90
2015,06,12,05,28,12.90
2015,06,12,05,29,12.90
2015,06,12,05,30,9.60
2015,06,12,05,31,14.50
2015,06,12,05,32,8.10
2015,06,12,05,33,8.10
2015,06,12,05,34,4.80
2015,06,12,05,35,6.40
2015,06,12,05,36,6.40
2015,06,12,05,37,4.80
2015,06,12,05,38,9.60
2015,06,12,05,39,6.40
2015,06,12,05,40,8.10
2015,06,12,05,41,11.30
2015,06,12,05,42,8.10
2015,06,12,05,43,9.60
2015,06,12,05,44,11.30
2015,06,12,05,45,9.60
2015,06,12,05,46,8.10
2015,06,12,05,47,11.30
2015,06,12,05,48,11.30
2015,06,12,05,49,11.30
2015,06,12,05,50,11.30
2015,06,12,05,51,9.60
2015,06,12,05,52,8.10
2015,06,12,05,53,9.60
2015,06,12,05,54,8.10
2015,06,12,05,55,8.10
2015,06,12,05,56,6.40
2015,06,12,05,57,9.60
2015,06,12,05,58,8.10
2015,06,12,05,59,8.10
2015,06,12,06,00,9.60
2015,06,12,06,01,9.60
2015,06,12,06,02,9.60
2015,06,12,06,03,12.90
2015,06,12,06,04,8.10
2015,06,12,06,05,8.10
2015,06,12,06,06,9.60
2015,06,12,06,07,8.10
2015,06,12,06,08,11.30
2015,06,12,06,09,9.60
2015,06,12,06,10,8.10
2015,06,12,06,11,6.40
2015,06,12,06,12,6.40
2015,06,12,06,13,6.40
2015,06,12,06,14,8.10
2015,06,12,06,15,9.60
2015,06,12,06,16,9.60
2015,06,12,06,17,8.10
2015,06,12,06,18,8.10
2015,06,12,06,19,6.40
2015,06,12,06,20,4.80
2015,06,12,06,21,4.80
2015,06,12,06,22,6.40
2015,06,12,06,23,4.80
2015,06,12,06,24,6.40
2015,06,12,06,25,8.10
2015,06,12,06,26,4.80
2015,06,12,06,27,4.80
2015,06,12,06,28,1.60
2015,06,12,06,29,8.10
2015,06,12,06,30,6.40
2015,06,12,06,31,4.80
2015,06,12,06,32,3.20
2015,06,12,06,33,3.20
2015,06,12,06,34,4.80
2015,06,12,06,35,6.40
2015,06,12,06,36,8.10
2015,06,12,06,37,3.20
2015,06,12,06,38,6.40
2015,06,12,06,39,8.10
2015,06,12,06,40,4.80
2015,06,12,06,41,6.40
2015,06,12,06,42,6.40
2015,06,12,06,43,6.40
2015,06,12,06,44,4.80
2015,06,12,06,45,4.80
2015,06,12,06,46,4.80
2015,06,12,06,47,6.40
2015,06,12,06,48,3.20
2015,06,12,06,49,6.40
2015,06,12,06,50,6.40
2015,06,12,06,51,9.60
2015,06,12,06,52,6.40
2015,06,12,06,53,4.80
2015,06,12,06,54,4.80
2015,06,12,06,55,4.80
2015,06,12,06,56,6.40
2015,06,12,06,57,4.80
2015,06,12,06,58,6.40
2015,06,12,06,59,8.10
2015,06,12,07,00,11.30
2015,06,12,07,01,9.60
2015,06,12,07,02,8.10
2015,06,12,07,03,6.40
2015,06,12,07,04,9.60
2015,06,12,07,05,9.60
2015,06,12,07,06,6.40
2015,06,12,07,07,6.40
2015,06,12,07,08,4.80
2015,06,12,07,09,9.60
2015,06,12,07,10,9.60
2015,06,12,07,11,8.10
2015,06,12,07,12,9.60
2015,06,12,07,13,6.40
2015,06,12,07,14,8.10
2015,06,12,07,15,11.30
2015,06,12,07,16,6.40
2015,06,12,07,17,1.60
2015,06,12,07,18,4.80
2015,06,12,07,19,8.10
2015,06,12,07,20,8.10
2015,06,12,07,21,9.60
2015,06,12,07,22,11.30
2015,06,12,07,23,11.30
2015,06,12,07,24,8.10
2015,06,12,07,25,4.80
2015,06,12,07,26,4.80
2015,06,12,07,27,3.20
2015,06,12,07,28,8.10
2015,06,12,07,29,8.10
2015,06,12,07,30,6.40
2015,06,12,07,31,9.60
2015,06,12,07,32,11.30
2015,06,12,07,33,11.30
2015,06,12,07,34,6.40
2015,06,12,07,35,11.30
2015,06,12,07,36,8.10
2015,06,12,07,37,8.10
2015,06,12,07,38,8.10
2015,06,12,07,39,9.60
2015,06,12,07,40,9.60
2015,06,12,07,41,8.10
2015,06,12,07,42,6.40
2015,06,12,07,43,6.40
2015,06,12,07,44,11.30
2015,06,12,07,45,12.90
2015,06,12,07,46,12.90
2015,06,12,07,47,9.60
2015,06,12,07,48,11.30
2015,06,12,07,49,9.60
2015,06,12,07,50,8.10
2015,06,12,07,51,11.30
2015,06,12,07,52,8.10
2015,06,12,07,53,11.30
2015,06,12,07,54,8.10
2015,06,12,07,55,6.40
2015,06,12,07,56,11.30
2015,06,12,07,57,9.60
2015,06,12,07,58,11.30
2015,06,12,07,59,12.90
2015,06,12,08,00,11.30
2015,06,12,08,01,12.90
2015,06,12,08,02,11.30
2015,06,12,08,03,8.10
2015,06,12,08,04,4.80
2015,06,12,08,05,4.80
2015,06,12,08,06,8.10
2015,06,12,08,07,9.60
2015,06,12,08,08,11.30
2015,06,12,08,09,11.30
2015,06,12,08,10,9.60
2015,06,12,08,11,6.40
2015,06,12,08,12,6.40
2015,06,12,08,13,9.60
2015,06,12,08,14,8.10
2015,06,12,08,15,9.60
2015,06,12,08,16,11.30
2015,06,12,08,17,12.90
2015,06,12,08,18,9.60
2015,06,12,08,19,11.30
2015,06,12,08,20,12.90
2015,06,12,08,21,12.90
2015,06,12,08,22,12.90
2015,06,12,08,23,6.40
2015,06,12,08,24,14.50
2015,06,12,08,25,12.90
2015,06,12,08,26,8.10
2015,06,12,08,27,9.60
2015,06,12,08,28,9.60
2015,06,12,08,29,9.60
2015,06,12,08,30,6.40
2015,06,12,08,31,8.10
2015,06,12,08,32,11.30
2015,06,12,08,33,8.10
2015,06,12,08,34,3.20
2015,06,12,08,35,9.60
2015,06,12,08,36,12.90
2015,06,12,08,37,9.60
2015,06,12,08,38,14.50
2015,06,12,08,39,16.10
2015,06,12,08,40,11.30
2015,06,12,08,41,12.90
2015,06,12,08,42,16.10
2015,06,12,08,43,14.50
2015,06,12,08,44,14.50
2015,06,12,08,45,14.50
2015,06,12,08,46,17.70
2015,06,12,08,47,19.30
2015,06,12,08,48,14.50
2015,06,12,08,49,17.70
2015,06,12,08,50,14.50
2015,06,12,08,51,9.60
2015,06,12,08,52,20.90
2015,06,12,08,53,16.10
2015,06,12,08,54,20.90
2015,06,12,08,55,11.30
2015,06,12,08,56,14.50
2015,06,12,08,57,11.30
2015,06,12,08,58,14.50
2015,06,12,08,59,14.50
2015,06,12,09,00,19.30
2015,06,12,09,01,17.70
2015,06,12,09,02,16.10
2015,06,12,09,03,9.60
2015,06,12,09,04,16.10
2015,06,12,09,05,17.70
2015,06,12,09,06,12.90
2015,06,12,09,07,14.50
2015,06,12,09,08,16.10
2015,06,12,09,09,20.90
2015,06,12,09,10,24.20
2015,06,12,09,11,20.90
2015,06,12,09,12,14.50
2015,06,12,09,13,16.10
2015,06,12,09,14,22.50
2015,06,12,09,15,14.50
2015,06,12,09,16,12.90
2015,06,12,09,17,14.50
2015,06,12,09,18,16.10
2015,06,12,09,19,9.60
2015,06,12,09,20,11.30
2015,06,12,09,21,11.30
2015,06,12,09,22,17.70
2015,06,12,09,23,11.30
2015,06,12,09,24,14.50
2015,06,12,09,25,19.30
2015,06,12,09,26,20.90
2015,06,12,09,27,16.10
2015,06,12,09,28,17.70
2015,06,12,09,29,19.30
2015,06,12,09,30,17.70
2015,06,12,09,31,17.70
2015,06,12,09,32,12.90
2015,06,12,09,33,11.30
2015,06,12,09,34,12.90
2015,06,12,09,35,14.50
2015,06,12,09,36,14.50
2015,06,12,09,37,14.50
2015,06,12,09,38,19.30
2015,06,12,09,39,14.50
2015,06,12,09,40,16.10
2015,06,12,09,41,11.30
2015,06,12,09,42,16.10
2015,06,12,09,43,17.70
2015,06,12,09,44,19.30
2015,06,12,09,45,20.90
2015,06,12,09,46,12.90
2015,06,12,09,47,22.50
2015,06,12,09,48,12.90
2015,06,12,09,49,9.60
2015,06,12,09,50,14.50
2015,06,12,09,51,12.90
2015,06,12,09,52,17.70
2015,06,12,09,53,14.50
2015,06,12,09,54,14.50
2015,06,12,09,55,17.70
2015,06,12,09,56,19.30
2015,06,12,09,57,17.70
2015,06,12,09,58,12.90
2015,06,12,09,59,11.30
2015,06,12,10,00,11.30
2015,06,12,10,01,14.50
2015,06,12,10,02,14.50
2015,06,12,10,03,17.70
2015,06,12,10,04,17.70
2015,06,12,10,05,17.70
2015,06,12,10,06,14.50
2015,06,12,10,07,17.70
2015,06,12,10,08,17.70
2015,06,12,10,09,17.70
2015,06,12,10,10,16.10
2015,06,12,10,11,14.50
2015,06,12,10,12,16.10
2015,06,12,10,13,12.90
2015,06,12,10,14,19.30
2015,06,12,10,15,20.90
2015,06,12,10,16,17.70
2015,06,12,10,17,14.50
2015,06,12,10,18,19.30
2015,06,12,10,19,11.30
2015,06,12,10,20,14.50
2015,06,12,10,21,11.30
2015,06,12,10,22,11.30
2015,06,12,10,23,12.90
2015,06,12,10,24,14.50
2015,06,12,10,25,12.90
2015,06,12,10,26,14.50
2015,06,12,10,27,9.60
2015,06,12,10,28,16.10
2015,06,12,10,29,12.90
2015,06,12,10,30,20.90
2015,06,12,10,31,9.60
2015,06,12,10,32,14.50
2015,06,12,10,33,8.10
2015,06,12,10,34,8.10
2015,06,12,10,35,12.90
2015,06,12,10,36,19.30
2015,06,12,10,37,16.10
2015,06,12,10,38,16.10
2015,06,12,10,39,17.70
2015,06,12,10,40,19.30
2015,06,12,10,41,14.50
2015,06,12,10,42,16.10
2015,06,12,10,43,11.30
2015,06,12,10,44,9.60
2015,06,12,10,45,11.30
2015,06,12,10,46,6.40
2015,06,12,10,47,12.90
2015,06,12,10,48,12.90
2015,06,12,10,49,8.10
2015,06,12,10,50,16.10
2015,06,12,10,51,16.10
2015,06,12,10,52,14.50
2015,06,12,10,53,12.90
2015,06,12,10,54,11.30
2015,06,12,10,55,14.50
2015,06,12,10,56,11.30
2015,06,12,10,57,17.70
2015,06,12,10,58,11.30
2015,06,12,10,59,12.90
2015,06,12,11,00,11.30
2015,06,12,11,01,8.10
2015,06,12,11,02,16.10
2015,06,12,11,03,19.30
2015,06,12,11,04,9.60
2015,06,12,11,05,11.30
2015,06,12,11,06,12.90
2015,06,12,11,07,14.50
2015,06,12,11,08,9.60
2015,06,12,11,09,8.10
2015,06,12,11,10,16.10
2015,06,12,11,11,9.60
2015,06,12,11,12,17.70
2015,06,12,11,13,16.10
2015,06,12,11,14,14.50
2015,06,12,11,15,17.70
2015,06,12,11,16,11.30
2015,06,12,11,17,11.30
2015,06,12,11,18,11.30
2015,06,12,11,19,16.10
2015,06,12,11,20,16.10
2015,06,12,11,21,11.30
2015,06,12,11,22,11.30
2015,06,12,11,23,9.60
2015,06,12,11,24,9.60
2015,06,12,11,25,11.30
2015,06,12,11,26,12.90
2015,06,12,11,27,9.60
2015,06,12,11,28,11.30
2015,06,12,11,29,11.30
2015,06,12,11,30,16.10
2015,06,12,11,31,12.90
2015,06,12,11,32,12.90
2015,06,12,11,33,14.50
2015,06,12,11,34,12.90
2015,06,12,11,35,11.30
2015,06,12,11,36,9.60
2015,06,12,11,37,12.90
2015,06,12,11,38,14.50
2015,06,12,11,39,8.10
2015,06,12,11,40,9.60
2015,06,12,11,41,9.60
2015,06,12,11,42,12.90
2015,06,12,11,43,16.10
2015,06,12,11,44,14.50
2015,06,12,11,45,14.50
2015,06,12,11,46,20.90
2015,06,12,11,47,9.60
2015,06,12,11,48,16.10
2015,06,12,11,49,9.60
2015,06,12,11,50,11.30
2015,06,12,11,51,12.90
2015,06,12,11,52,12.90
2015,06,12,11,53,16.10
2015,06,12,11,54,14.50
2015,06,12,11,55,14.50
2015,06,12,11,56,11.30
2015,06,12,11,57,11.30
2015,06,12,11,58,8.10
2015,06,12,11,59,11.30
2015,06,12,12,00,9.60
2015,06,12,12,01,11.30
2015,06,12,12,02,12.90
2015,06,12,12,03,12.90
2015,06,12,12,04,9.60
2015,06,12,12,05,11.30
2015,06,12,12,06,11.30
2015,06,12,12,07,9.60
2015,06,12,12,08,16.10
2015,06,12,12,09,14.50
2015,06,12,12,10,17.70
2015,06,12,12,11,14.50
2015,06,12,12,12,11.30
2015,06,12,12,13,16.10
2015,06,12,12,14,11.30
2015,06,12,12,15,4.80
2015,06,12,12,16,6.40
2015,06,12,12,17,6.40
2015,06,12,12,18,11.30
2015,06,12,12,19,17.70
2015,06,12,12,20,9.60
2015,06,12,12,21,12.90
2015,06,12,12,22,8.10
2015,06,12,12,23,14.50
2015,06,12,12,24,14.50
2015,06,12,12,25,16.10
2015,06,12,12,26,11.30
2015,06,12,12,27,16.10
2015,06,12,12,28,12.90
2015,06,12,12,29,16.10
2015,06,12,12,30,14.50
2015,06,12,12,31,9.60
2015,06,12,12,32,11.30
2015,06,12,12,33,11.30
2015,06,12,12,34,8.10
2015,06,12,12,35,12.90
2015,06,12,12,36,12.90
2015,06,12,12,37,11.30
2015,06,12,12,38,9.60
2015,06,12,12,39,16.10
2015,06,12,12,40,9.60
2015,06,12,12,41,22.50
2015,06,12,12,42,22.50
2015,06,12,12,43,14.50
2015,06,12,12,44,11.30
2015,06,12,12,45,12.90
2015,06,12,12,46,14.50
2015,06,12,12,47,20.90
2015,06,12,12,48,19.30
2015,06,12,12,49,17.70
2015,06,12,12,50,17.70
2015,06,12,12,51,20.90
2015,06,12,12,52,9.60
2015,06,12,12,53,6.40
2015,06,12,12,54,11.30
2015,06,12,12,55,9.60
2015,06,12,12,56,11.30
2015,06,12,12,57,11.30
2015,06,12,12,58,16.10
2015,06,12,12,59,12.90
2015,06,12,13,00,8.10
2015,06,12,13,01,12.90
2015,06,12,13,02,16.10
2015,06,12,13,03,12.90
2015,06,12,13,04,14.50
2015,06,12,13,05,9.60
2015,06,12,13,06,19.30
2015,06,12,13,07,16.10
2015,06,12,13,08,14.50
2015,06,12,13,09,12.90
2015,06,12,13,10,14.50
2015,06,12,13,11,11.30
2015,06,12,13,12,11.30
2015,06,12,13,13,11.30
2015,06,12,13,14,12.90
2015,06,12,13,15,8.10
2015,06,12,13,16,16.10
2015,06,12,13,17,19.30
2015,06,12,13,18,17.70
2015,06,12,13,19,16.10
2015,06,12,13,20,14.50
2015,06,12,13,21,16.10
2015,06,12,13,22,14.50
2015,06,12,13,23,16.10
2015,06,12,13,24,12.90
2015,06,12,13,25,17.70
2015,06,12,13,26,17.70
2015,06,12,13,27,12.90
2015,06,12,13,28,14.50
2015,06,12,13,29,14.50
2015,06,12,13,30,8.10
2015,06,12,13,31,16.10
2015,06,12,13,32,19.30
2015,06,12,13,33,17.70
2015,06,12,13,34,16.10
2015,06,12,13,35,12.90
2015,06,12,13,36,16.10
2015,06,12,13,37,16.10
2015,06,12,13,38,16.10
2015,06,12,13,39,12.90
2015,06,12,13,40,12.90
2015,06,12,13,41,14.50
2015,06,12,13,42,9.60
2015,06,12,13,43,12.90
2015,06,12,13,44,11.30
2015,06,12,13,45,12.90
2015,06,12,13,46,11.30
2015,06,12,13,47,11.30
2015,06,12,13,48,14.50
2015,06,12,13,49,9.60
2015,06,12,13,50,11.30
2015,06,12,13,51,22.50
2015,06,12,13,52,20.90
2015,06,12,13,53,20.90
2015,06,12,13,54,17.70
2015,06,12,13,55,12.90
2015,06,12,13,56,17.70
2015,06,12,13,57,12.90
2015,06,12,13,58,4.80
2015,06,12,13,59,9.60
2015,06,12,14,00,14.50
2015,06,12,14,01,14.50
2015,06,12,14,02,8.10
2015,06,12,14,03,11.30
2015,06,12,14,04,16.10
2015,06,12,14,05,20.90
2015,06,12,14,06,14.50
2015,06,12,14,07,16.10
2015,06,12,14,08,16.10
2015,06,12,14,09,16.10
2015,06,12,14,10,11.30
2015,06,12,14,11,17.70
2015,06,12,14,12,14.50
2015,06,12,14,13,17.70
2015,06,12,14,14,14.50
2015,06,12,14,15,24.20
2015,06,12,14,16,16.10
2015,06,12,14,17,17.70
2015,06,12,14,18,14.50
2015,06,12,14,19,14.50
2015,06,12,14,20,12.90
2015,06,12,14,21,8.10
2015,06,12,14,22,14.50
2015,06,12,14,23,11.30
2015,06,12,14,24,9.60
2015,06,12,14,25,14.50
2015,06,12,14,26,11.30
2015,06,12,14,27,16.10
2015,06,12,14,28,12.90
2015,06,12,14,29,17.70
2015,06,12,14,30,12.90
2015,06,12,14,31,8.10
2015,06,12,14,32,19.30
2015,06,12,14,33,11.30
2015,06,12,14,34,16.10
2015,06,12,14,35,11.30
2015,06,12,14,36,9.60
2015,06,12,14,37,11.30
2015,06,12,14,38,14.50
2015,06,12,14,39,17.70
2015,06,12,14,40,16.10
2015,06,12,14,41,17.70
2015,06,12,14,42,16.10
2015,06,12,14,43,16.10
2015,06,12,14,44,8.10
2015,06,12,14,45,12.90
2015,06,12,14,46,16.10
2015,06,12,14,47,16.10
2015,06,12,14,48,14.50
2015,06,12,14,49,11.30
2015,06,12,14,50,17.70
2015,06,12,14,51,16.10
2015,06,12,14,52,16.10
2015,06,12,14,53,19.30
2015,06,12,14,54,16.10
2015,06,12,14,55,12.90
2015,06,12,14,56,14.50
2015,06,12,14,57,11.30
2015,06,12,14,58,12.90
2015,06,12,14,59,16.10
2015,06,12,15,00,12.90
2015,06,12,15,01,14.50
2015,06,12,15,02,14.50
2015,06,12,15,03,14.50
2015,06,12,15,04,9.60
2015,06,12,15,05,11.30
2015,06,12,15,06,12.90
2015,06,12,15,07,16.10
2015,06,12,15,08,14.50
2015,06,12,15,09,12.90
2015,06,12,15,10,17.70
2015,06,12,15,11,17.70
2015,06,12,15,12,14.50
2015,06,12,15,13,16.10
2015,06,12,15,14,8.10
2015,06,12,15,15,6.40
2015,06,12,15,16,14.50
2015,06,12,15,17,12.90
2015,06,12,15,18,14.50
2015,06,12,15,19,17.70
2015,06,12,15,20,11.30
2015,06,12,15,21,19.30
2015,06,12,15,22,12.90
2015,06,12,15,23,11.30
2015,06,12,15,24,12.90
2015,06,12,15,25,16.10
2015,06,12,15,26,16.10
2015,06,12,15,27,16.10
2015,06,12,15,28,11.30
2015,06,12,15,29,16.10
2015,06,12,15,30,17.70
2015,06,12,15,31,19.30
2015,06,12,15,32,9.60
2015,06,12,15,33,16.10
2015,06,12,15,34,20.90
2015,06,12,15,35,14.50
2015,06,12,15,36,14.50
2015,06,12,15,37,14.50
2015,06,12,15,38,16.10
2015,06,12,15,39,20.90
2015,06,12,15,40,12.90
2015,06,12,15,41,19.30
2015,06,12,15,42,8.10
2015,06,12,15,43,8.10
2015,06,12,15,44,11.30
2015,06,12,15,45,11.30
2015,06,12,15,46,17.70
2015,06,12,15,47,9.60
2015,06,12,15,48,17.70
2015,06,12,15,49,14.50
2015,06,12,15,50,14.50
2015,06,12,15,51,8.10
2015,06,12,15,52,14.50
2015,06,12,15,53,12.90
2015,06,12,15,54,12.90
2015,06,12,15,55,12.90
2015,06,12,15,56,12.90
2015,06,12,15,57,8.10
2015,06,12,15,58,17.70
2015,06,12,15,59,16.10
2015,06,12,16,00,14.50
2015,06,12,16,01,12.90
2015,06,12,16,02,16.10
2015,06,12,16,03,8.10
2015,06,12,16,04,8.10
2015,06,12,16,05,11.30
2015,06,12,16,06,12.90
2015,06,12,16,07,11.30
2015,06,12,16,08,11.30
2015,06,12,16,09,9.60
2015,06,12,16,10,8.10
2015,06,12,16,11,9.60
2015,06,12,16,12,11.30
2015,06,12,16,13,11.30
2015,06,12,16,14,9.60
2015,06,12,16,15,8.10
2015,06,12,16,16,11.30
2015,06,12,16,17,11.30
2015,06,12,16,18,14.50
2015,06,12,16,19,19.30
2015,06,12,16,20,16.10
2015,06,12,16,21,14.50
2015,06,12,16,22,8.10
2015,06,12,16,23,11.30
2015,06,12,16,24,4.80
2015,06,12,16,25,14.50
2015,06,12,16,26,8.10
2015,06,12,16,27,14.50
2015,06,12,16,28,12.90
2015,06,12,16,29,12.90
2015,06,12,16,30,12.90
2015,06,12,16,31,9.60
2015,06,12,16,32,11.30
2015,06,12,16,33,6.40
2015,06,12,16,34,6.40
2015,06,12,16,35,12.90
2015,06,12,16,36,12.90
2015,06,12,16,37,9.60
2015,06,12,16,38,8.10
2015,06,12,16,39,4.80
2015,06,12,16,40,9.60
2015,06,12,16,41,9.60
2015,06,12,16,42,11.30
2015,06,12,16,43,11.30
2015,06,12,16,44,12.90
2015,06,12,16,45,9.60
2015,06,12,16,46,9.60
2015,06,12,16,47,8.10
2015,06,12,16,48,9.60
2015,06,12,16,49,12.90
2015,06,12,16,50,12.90
2015,06,12,16,51,9.60
2015,06,12,16,52,16.10
2015,06,12,16,53,12.90
2015,06,12,16,54,16.10
2015,06,12,16,55,12.90
2015,06,12,16,56,14.50
2015,06,12,16,57,12.90
2015,06,12,16,58,14.50
2015,06,12,16,59,11.30
2015,06,12,17,00,14.50
2015,06,12,17,01,17.70
2015,06,12,17,02,16.10
2015,06,12,17,03,11.30
2015,06,12,17,04,16.10
2015,06,12,17,05,9.60
2015,06,12,17,06,16.10
2015,06,12,17,07,9.60
2015,06,12,17,08,12.90
2015,06,12,17,09,16.10
2015,06,12,17,10,20.90
2015,06,12,17,11,22.50
2015,06,12,17,12,17.70
2015,06,12,17,13,16.10
2015,06,12,17,14,17.70
2015,06,12,17,15,16.10
2015,06,12,17,16,14.50
2015,06,12,17,17,14.50
2015,06,12,17,18,12.90
2015,06,12,17,19,12.90
2015,06,12,17,20,16.10
2015,06,12,17,21,17.70
2015,06,12,17,22,17.70
2015,06,12,17,23,11.30
2015,06,12,17,24,11.30
2015,06,12,17,25,12.90
2015,06,12,17,26,19.30
2015,06,12,17,27,6.40
2015,06,12,17,28,12.90
2015,06,12,17,29,6.40
2015,06,12,17,30,16.10